When you browse on this site, cookies collect data to enhance your experience and personalize the content and advertising you see.
Visit our Privacy Policy to learn more. By continuing to use the site, you agree to this use of cookies and data.
  • In Hungary
  • List of Countries
  • For 7 days
  • Water Temperature
  • Satellite Maps
  • Weather Map
  • News
  • Weather Widgets
  • user-avatar
    Login

    Hourly Weather Kananga

    Today, 18 November, Sunday

    Time Temperature Precipitation Wind Pressure Humidity
    00:00 +22°C° 0 mm 0 mps 705 mmHg 42%
    01:00 +23°C° 0 mm 1 mps 705 mmHg 43%
    02:00 +23°C° 0 mm 1 mps 705 mmHg 44%
    03:00 +22°C° 0 mm 1 mps 705 mmHg 45%
    04:00 +22°C° 0 mm 1 mps 705 mmHg 46%
    05:00 +23°C° 0 mm 1 mps 705 mmHg 45%
    06:00 +24°C° 0 mm 1 mps 705 mmHg 44%
    07:00 +25°C° 0 mm 1 mps 706 mmHg 43%
    08:00 +29°C° 0 mm 2 mps 706 mmHg 36%
    09:00 +32°C° 0 mm 2 mps 706 mmHg 28%
    10:00 +36°C° 0 mm 3 mps 707 mmHg 21%
    11:00 +37°C° 0 mm 2 mps 706 mmHg 19%
    12:00 +38°C° 0 mm 2 mps 705 mmHg 18%
    13:00 +39°C° 0 mm 2 mps 704 mmHg 17%
    14:00 +38°C° 0 mm 2 mps 704 mmHg 19%
    15:00 +38°C° 0 mm 2 mps 703 mmHg 21%
    16:00 +36°C° 0 mm 1 mps 702 mmHg 24%
    17:00 +33°C° 0 mm 1 mps 703 mmHg 27%
    18:00 +31°C° 0 mm 1 mps 703 mmHg 31%
    19:00 +28°C° 0 mm 1 mps 703 mmHg 34%
    20:00 +28°C° 0 mm 1 mps 703 mmHg 35%
    21:00 +27°C° 0 mm 1 mps 704 mmHg 36%
    22:00 +27°C° 0 mm 1 mps 704 mmHg 36%
    23:00 +26°C° 0 mm 1 mps 704 mmHg 37%

    Tomorrow, 19 November, Monday

    Time Temperature Precipitation Wind Pressure Humidity
    00:00 +26°C° 0 mm 1 mps 704 mmHg 38%
    01:00 +25°C° 0 mm 1 mps 704 mmHg 39%
    02:00 +24°C° 0 mm 1 mps 704 mmHg 42%
    03:00 +23°C° 0 mm 1 mps 703 mmHg 45%
    04:00 +20°C° 0 mm 0 mps 703 mmHg 47%
    05:00 +22°C° 0 mm 0 mps 704 mmHg 46%
    06:00 +25°C° 0 mm 1 mps 705 mmHg 44%
    07:00 +27°C° 0 mm 1 mps 705 mmHg 43%
    08:00 +30°C° 0 mm 1 mps 706 mmHg 35%
    09:00 +34°C° 0 mm 2 mps 706 mmHg 28%
    10:00 +37°C° 0 mm 2 mps 706 mmHg 20%
    11:00 +38°C° 0 mm 2 mps 705 mmHg 19%
    12:00 +39°C° 0 mm 2 mps 705 mmHg 17%
    13:00 +40°C° 0 mm 2 mps 704 mmHg 16%
    14:00 +39°C° 0 mm 2 mps 703 mmHg 17%
    15:00 +38°C° 0 mm 2 mps 703 mmHg 19%
    16:00 +37°C° 0 mm 1 mps 702 mmHg 21%
    17:00 +34°C° 0 mm 1 mps 702 mmHg 24%
    18:00 +31°C° 0 mm 1 mps 703 mmHg 27%
    19:00 +28°C° 0 mm 1 mps 703 mmHg 30%
    20:00 +28°C° 0 mm 1 mps 703 mmHg 30%
    21:00 +27°C° 0 mm 1 mps 704 mmHg 31%
    22:00 +27°C° 0 mm 1 mps 704 mmHg 32%
    23:00 +26°C° 0 mm 1 mps 704 mmHg 33%

    Day after tomorrow, 20 November, Tuesday

    Time Temperature Precipitation Wind Pressure Humidity
    00:00 +25°C° 0 mm 1 mps 703 mmHg 35%
    01:00 +25°C° 0 mm 1 mps 703 mmHg 36%
    02:00 +24°C° 0 mm 1 mps 703 mmHg 39%
    03:00 +23°C° 0 mm 1 mps 703 mmHg 41%
    04:00 +22°C° 0 mm 1 mps 702 mmHg 44%
    05:00 +22°C° 0 mm 0 mps 703 mmHg 42%
    06:00 +23°C° 0 mm 0 mps 704 mmHg 41%
    07:00 +25°C° 0 mm 0 mps 705 mmHg 40%
    08:00 +30°C° 0 mm 1 mps 706 mmHg 33%
    09:00 +34°C° 0 mm 1 mps 706 mmHg 26%
    10:00 +38°C° 0 mm 2 mps 707 mmHg 19%
    11:00 +39°C° 0 mm 2 mps 706 mmHg 17%
    12:00 +40°C° 0 mm 2 mps 705 mmHg 16%
    13:00 +41°C° 0 mm 2 mps 704 mmHg 14%
    14:00 +40°C° 0 mm 2 mps 703 mmHg 16%
    15:00 +39°C° 0 mm 1 mps 703 mmHg 18%
    16:00 +37°C° 0 mm 1 mps 702 mmHg 19%
    17:00 +34°C° 0 mm 1 mps 703 mmHg 22%
    18:00 +31°C° 0 mm 1 mps 703 mmHg 25%
    19:00 +28°C° 0 mm 1 mps 703 mmHg 28%
    20:00 +28°C° 0 mm 1 mps 703 mmHg 29%
    21:00 +27°C° 0 mm 1 mps 703 mmHg 29%
    22:00 +26°C° 0 mm 1 mps 704 mmHg 30%
    23:00 +26°C° 0 mm 1 mps 703 mmHg 31%

    21 November, Wednesday

    Time Temperature Precipitation Wind Pressure Humidity
    00:00 +25°C° 0 mm 1 mps 703 mmHg 32%
    01:00 +24°C° 0 mm 1 mps 703 mmHg 34%
    02:00 +23°C° 0 mm 1 mps 703 mmHg 35%
    03:00 +23°C° 0 mm 1 mps 703 mmHg 37%
    04:00 +22°C° 0 mm 1 mps 703 mmHg 39%
    05:00 +23°C° 0 mm 1 mps 704 mmHg 38%
    06:00 +25°C° 0 mm 1 mps 704 mmHg 38%
    07:00 +26°C° 0 mm 1 mps 705 mmHg 37%
    08:00 +29°C° 0 mm 1 mps 706 mmHg 31%
    09:00 +33°C° 0 mm 1 mps 706 mmHg 24%
    10:00 +37°C° 0 mm 2 mps 706 mmHg 18%
    11:00 +38°C° 0 mm 2 mps 705 mmHg 17%
    12:00 +39°C° 0 mm 1 mps 705 mmHg 16%
    13:00 +41°C° 0 mm 1 mps 704 mmHg 14%
    14:00 +40°C° 0 mm 1 mps 703 mmHg 16%
    15:00 +39°C° 0 mm 1 mps 703 mmHg 18%
    16:00 +37°C° 0 mm 1 mps 702 mmHg 20%
    17:00 +34°C° 0 mm 1 mps 703 mmHg 23%
    18:00 +31°C° 0 mm 1 mps 703 mmHg 27%
    19:00 +28°C° 0 mm 1 mps 703 mmHg 30%
    20:00 +27°C° 0 mm 1 mps 703 mmHg 34%
    21:00 +26°C° 0 mm 1 mps 704 mmHg 37%
    22:00 +26°C° 0 mm 1 mps 704 mmHg 41%
    23:00 +25°C° 0 mm 1 mps 703 mmHg 47%

    22 November, Thursday

    Time Temperature Precipitation Wind Pressure Humidity
    00:00 +25°C° 0 mm 1 mps 703 mmHg 54%
    01:00 +24°C° 0 mm 1 mps 703 mmHg 61%
    02:00 +24°C° 0 mm 1 mps 703 mmHg 65%
    03:00 +23°C° 0 mm 1 mps 703 mmHg 70%
    04:00 +21°C° 0 mm 0 mps 703 mmHg 74%
    05:00 +22°C° 0 mm 0 mps 704 mmHg 71%
    06:00 +24°C° 0 mm 0 mps 705 mmHg 68%
    07:00 +25°C° 0 mm 0 mps 706 mmHg 65%
    08:00 +30°C° 0 mm 1 mps 706 mmHg 58%
    09:00 +32°C° 0 mm 1 mps 706 mmHg 51%
    10:00 +35°C° 0 mm 1 mps 706 mmHg 43%
    11:00 +36°C° 0 mm 1 mps 706 mmHg 39%
    12:00 +37°C° 0 mm 1 mps 705 mmHg 35%
    13:00 +37°C° 0 mm 0 mps 704 mmHg 30%
    14:00 +35°C° 0 mm 0 mps 704 mmHg 34%
    15:00 +35°C° 0 mm 1 mps 703 mmHg 37%
    16:00 +33°C° 0 mm 1 mps 703 mmHg 41%
    17:00 +32°C° 0 mm 1 mps 703 mmHg 45%
    18:00 +30°C° 0 mm 1 mps 703 mmHg 50%
    19:00 +28°C° 0 mm 1 mps 704 mmHg 55%
    20:00 +27°C° 0 mm 1 mps 704 mmHg 56%
    21:00 +27°C° 0 mm 1 mps 704 mmHg 58%
    22:00 +26°C° 0 mm 1 mps 704 mmHg 60%
    23:00 +26°C° 0 mm 1 mps 703 mmHg 62%

    23 November, Friday

    Time Temperature Precipitation Wind Pressure Humidity
    00:00 +25°C° 0 mm 1 mps 703 mmHg 65%
    01:00 +24°C° 0 mm 1 mps 703 mmHg 67%
    02:00 +24°C° 0 mm 1 mps 703 mmHg 72%
    03:00 +23°C° 0 mm 1 mps 703 mmHg 76%
    04:00 +23°C° 0 mm 1 mps 704 mmHg 80%
    05:00 +24°C° 0.1 mm 1 mps 704 mmHg 77%
    06:00 +25°C° 0.1 mm 1 mps 705 mmHg 73%
    07:00 +26°C° 0.1 mm 1 mps 706 mmHg 70%
    08:00 +29°C° 0 mm 1 mps 706 mmHg 60%
    09:00 +33°C° 0 mm 1 mps 706 mmHg 50%
    10:00 +36°C° 0 mm 1 mps 706 mmHg 40%
    11:00 +37°C° 0 mm 1 mps 705 mmHg 36%
    12:00 +39°C° 0 mm 1 mps 704 mmHg 31%
    13:00 +40°C° 0 mm 1 mps 703 mmHg 27%
    14:00 +37°C° 0 mm 1 mps 703 mmHg 30%
    15:00 +36°C° 0 mm 1 mps 703 mmHg 33%
    16:00 +32°C° 0 mm 0 mps 702 mmHg 36%
    17:00 +31°C° 0 mm 0 mps 703 mmHg 39%
    18:00 +32°C° 0 mm 1 mps 703 mmHg 41%
    19:00 +30°C° 0 mm 1 mps 703 mmHg 43%
    20:00 +29°C° 0 mm 1 mps 703 mmHg 46%
    21:00 +28°C° 0 mm 1 mps 703 mmHg 50%
    22:00 +27°C° 0 mm 1 mps 703 mmHg 53%
    23:00 +27°C° 0 mm 1 mps 703 mmHg 55%
    Show more